Regional Weather Roundup
Issued by NWS Burlington, VT

Home | Current Version | Previous Version | Text Only | Print | Product List | Glossary On
Versions: 1 2 3 4 5 6 7 8 9 10 11 12 13 14 15 16 17 18 19 20 21 22 23 24 25 26 27 28 29 30 31 32 33 34 35 36 37 38 39 40 41 42 43 44 45 46 47 48 49 50
000
ASUS41 KBTV 311410
RWRBTV
VERMONT REGIONAL WEATHER ROUNDUP
NATIONAL WEATHER SERVICE BURLINGTON VT
900 AM EST SAT JAN 31 2015

NOTE: "FAIR" INDICATES FEW OR NO CLOUDS BELOW 12,000 FEET WITH NO
SIGNIFICANT WEATHER AND/OR OBSTRUCTIONS TO VISIBILITY.

* THESE REPORTS ARE NOT UNDER NWS QUALITY CONTROL AND/OR DO NOT
  REPORT WEATHER SUCH AS PRECIPITATION AND FOG.

VTZ001>019-311500-
_____VERMONT_____


CITY           SKY/WX    TMP DP  RH WIND       PRES   REMARKS
BURLINGTON     MOSUNNY   -4 -15  59 N9        30.20S
MONTPELIER     MOSUNNY   -7 -14  71 NW16      30.07S WCI -29
MORRISVILLE    MOSUNNY   -5 -14  65 N13       30.12F WCI -24
ST. JOHNSBURY*   N/A     -3 -13  62 MISG      30.05S
LYNDONVILLE*   FAIR      -6 -16  63 NW14      30.02S WCI -27
MIDDLEBURY*    LGT SNOW   0 -10  62 N16G25    30.14S WCI -20
RUTLAND*       SUNNY      0  -9  65 NW14G20   30.08R WCI -19
SPRINGFIELD    SUNNY      3 -10  54 W7        30.02F
HIGHGATE*      FAIR      -5 -15  63 W5        30.23S
NEWPORT*       FAIR      -8 -15  68 NW9       30.08S
BENNINGTON     MOSUNNY   -1 -12  59 W6        30.09S

_____LAKE CHAMPLAIN_____


CITY           SKY/WX    TMP DP  RH WIND       PRES   REMARKS

$$

NYZ007-026>031-035-052-083-311500-
_____NORTHERN NEW YORK_____


CITY           SKY/WX    TMP DP  RH WIND       PRES   REMARKS
PLATTSBURGH    MOSUNNY    0 -16  46 CALM      30.21S
SARANAC LAKE   MOSUNNY  -12 -17  78 SW6       30.06S
MASSENA        MOSUNNY   -9 -16  71 SW7       30.32R
OGDENSBURG*    SUNNY     -2 -11  65 NW6       30.31R
WATERTOWN        N/A    N/A N/A N/A MISG      30.34R
FT DRUM        MOSUNNY   -6 -14  69 NW5       30.28R
ALBANY         SUNNY      2 -12  52 NW16G25   30.19S WCI -18
GLENS FALLS    SUNNY      2 -14  47 N7        30.18R

$$
NHZ002-005-011-311500-
_____NEW HAMPSHIRE_____


CITY           SKY/WX    TMP DP  RH WIND       PRES   REMARKS
LEBANON        SUNNY      1 -11  57 N7G16     30.04F
KEENE          SUNNY      5  -8  56 N21G26    29.96S WCI -16
MT WASHINGTON  PTSUNNY   -6 -15  65 N60G71      N/A  WCI -41
PLYMOUTH       FAIR       0  -7  73 W24G36    29.93S HAZE    WCI -24
WHITEFIELD     CLOUDY    -5 -12  72 NW5       30.00S HAZE

$$

_____REGIONAL QUEBEC LOCATIONS_____


CITY           SKY/WX    TMP DP  RH WIND       PRES   REMARKS
MONTREAL       MOSUNNY   -8 -18  59 W12       30.26R WCI -27
QUEBEC CITY    MOSUNNY   -2 -13  60 SW10      30.02S WCI -19
SHERBROOKE     MOSUNNY   -8 -15  71 W16G22    30.07S WCI -30

_____REGIONAL ONTARIO LOCATIONS_____


CITY           SKY/WX    TMP DP  RH WIND       PRES   REMARKS
OTTAWA         SUNNY     -9 -17  70 W7        30.29R

______KEY______
VSB  - VISIBILITY IN MILES
WCI  - WIND CHILL INDEX
HX   - HEAT INDEX
$$
NNNN


USA.gov is the U.S. government's official web portal to all federal, state and local government web resources and services.